Time,TemperatureF,DewpointF,PressureIn,WindDirection,WindDirectionDegrees,WindSpeedMPH,WindSpeedGustMPH,Humidity,HourlyPrecipIn,Conditions,Clouds,dailyrainin,SoftwareType,DateUTC
2013-05-02 00:00:00,68.0,60.9,30.06,ESE,115,1.0,2.0,78,0.00,,,0.00,Wunderground v.1.15,2013-05-02 05:00:00,
2013-05-02 00:06:00,67.8,60.7,30.06,ESE,114,1.0,2.0,78,0.00,,,0.00,Wunderground v.1.15,2013-05-02 05:06:00,
2013-05-02 00:12:00,67.6,60.9,30.06,ESE,114,1.0,1.0,79,0.00,,,0.00,Wunderground v.1.15,2013-05-02 05:12:00,
2013-05-02 00:18:00,67.4,60.7,30.07,ESE,116,1.0,1.0,79,0.00,,,0.00,Wunderground v.1.15,2013-05-02 05:18:00,
2013-05-02 00:24:00,67.0,60.6,30.06,ESE,114,1.0,2.0,80,0.00,,,0.00,Wunderground v.1.15,2013-05-02 05:24:00,
2013-05-02 00:30:00,66.8,60.4,30.07,ESE,115,1.0,1.0,80,0.00,,,0.00,Wunderground v.1.15,2013-05-02 05:30:00,
2013-05-02 00:36:00,66.6,60.2,30.07,ESE,114,2.0,2.0,80,0.00,,,0.00,Wunderground v.1.15,2013-05-02 05:36:00,
2013-05-02 00:41:00,66.4,60.4,30.07,ESE,115,2.0,2.0,81,0.00,,,0.00,Wunderground v.1.15,2013-05-02 05:41:00,
2013-05-02 00:47:00,66.3,60.3,30.07,ESE,114,2.0,4.0,81,0.00,,,0.00,Wunderground v.1.15,2013-05-02 05:47:00,
2013-05-02 00:53:00,66.3,60.3,30.07,ESE,117,2.0,4.0,81,0.00,,,0.00,Wunderground v.1.15,2013-05-02 05:53:00,
2013-05-02 00:59:00,66.3,60.3,30.07,ESE,115,2.0,4.0,81,0.00,,,0.00,Wunderground v.1.15,2013-05-02 05:59:00,
2013-05-02 01:05:00,66.3,60.3,30.07,ESE,119,2.0,3.0,81,0.00,,,0.00,Wunderground v.1.15,2013-05-02 06:05:00,
2013-05-02 01:11:00,66.3,59.9,30.07,ESE,118,2.0,4.0,80,0.00,,,0.00,Wunderground v.1.15,2013-05-02 06:11:00,
2013-05-02 01:17:00,66.3,59.9,30.06,ESE,121,2.0,4.0,80,0.00,,,0.00,Wunderground v.1.15,2013-05-02 06:17:00,
2013-05-02 01:23:00,66.3,59.9,30.06,ESE,116,2.0,3.0,80,0.00,,,0.00,Wunderground v.1.15,2013-05-02 06:23:00,
2013-05-02 01:29:00,66.2,59.8,30.06,ESE,118,2.0,3.0,80,0.00,,,0.00,Wunderground v.1.15,2013-05-02 06:29:00,
2013-05-02 01:35:00,66.1,59.7,30.06,ESE,118,2.0,4.0,80,0.00,,,0.00,Wunderground v.1.15,2013-05-02 06:35:00,
2013-05-02 01:41:00,66.1,59.7,30.06,ESE,120,2.0,2.0,80,0.00,,,0.00,Wunderground v.1.15,2013-05-02 06:41:00,
2013-05-02 01:47:00,66.0,59.7,30.06,ESE,112,2.0,2.0,80,0.00,,,0.00,Wunderground v.1.15,2013-05-02 06:47:00,
2013-05-02 01:53:00,65.9,59.6,30.06,ESE,117,1.0,2.0,80,0.00,,,0.00,Wunderground v.1.15,2013-05-02 06:53:00,
2013-05-02 01:59:00,65.8,59.5,30.05,ESE,116,1.0,3.0,80,0.00,,,0.00,Wunderground v.1.15,2013-05-02 06:59:00,
2013-05-02 02:05:00,65.7,59.7,30.05,ESE,118,1.0,3.0,81,0.00,,,0.00,Wunderground v.1.15,2013-05-02 07:05:00,
2013-05-02 02:11:00,65.6,59.6,30.05,ESE,117,1.0,2.0,81,0.00,,,0.00,Wunderground v.1.15,2013-05-02 07:11:00,
2013-05-02 02:17:00,65.6,59.6,30.05,ESE,116,2.0,3.0,81,0.00,,,0.00,Wunderground v.1.15,2013-05-02 07:17:00,
2013-05-02 02:23:00,65.5,59.5,30.05,ESE,119,2.0,2.0,81,0.00,,,0.00,Wunderground v.1.15,2013-05-02 07:23:00,
2013-05-02 02:29:00,65.4,59.4,30.05,ESE,118,1.0,2.0,81,0.00,,,0.00,Wunderground v.1.15,2013-05-02 07:29:00,
2013-05-02 02:35:00,65.3,59.3,30.04,ESE,119,2.0,4.0,81,0.00,,,0.00,Wunderground v.1.15,2013-05-02 07:35:00,
2013-05-02 02:41:00,65.3,59.3,30.04,ESE,118,2.0,4.0,81,0.00,,,0.00,Wunderground v.1.15,2013-05-02 07:41:00,
2013-05-02 02:47:00,65.2,59.2,30.05,ESE,117,2.0,4.0,81,0.00,,,0.00,Wunderground v.1.15,2013-05-02 07:47:00,
2013-05-02 02:53:00,65.3,59.3,30.04,ESE,118,2.0,5.0,81,0.00,,,0.00,Wunderground v.1.15,2013-05-02 07:53:00,
2013-05-02 02:59:00,65.4,59.4,30.04,ESE,118,2.0,5.0,81,0.00,,,0.00,Wunderground v.1.15,2013-05-02 07:59:00,
2013-05-02 03:05:00,65.4,59.4,30.04,ESE,119,2.0,2.0,81,0.00,,,0.00,Wunderground v.1.15,2013-05-02 08:05:00,
2013-05-02 03:11:00,65.1,59.1,30.04,ESE,119,1.0,2.0,81,0.00,,,0.00,Wunderground v.1.15,2013-05-02 08:11:00,
2013-05-02 03:17:00,64.7,58.7,30.04,ESE,117,2.0,2.0,81,0.00,,,0.00,Wunderground v.1.15,2013-05-02 08:17:00,
2013-05-02 03:23:00,64.4,58.8,30.04,ESE,117,1.0,2.0,82,0.00,,,0.00,Wunderground v.1.15,2013-05-02 08:23:00,
2013-05-02 03:29:00,64.1,58.8,30.04,ESE,118,1.0,3.0,83,0.00,,,0.00,Wunderground v.1.15,2013-05-02 08:29:00,
2013-05-02 03:35:00,63.8,58.5,30.04,ESE,114,2.0,3.0,83,0.00,,,0.00,Wunderground v.1.15,2013-05-02 08:35:00,
2013-05-02 03:41:00,63.5,58.6,30.04,ESE,119,2.0,2.0,84,0.00,,,0.00,Wunderground v.1.15,2013-05-02 08:41:00,
2013-05-02 03:47:00,63.2,58.6,30.04,ESE,117,2.0,2.0,85,0.00,,,0.00,Wunderground v.1.15,2013-05-02 08:47:00,
2013-05-02 03:53:00,63.0,58.4,30.04,ESE,118,2.0,3.0,85,0.00,,,0.00,Wunderground v.1.15,2013-05-02 08:53:00,
2013-05-02 03:59:00,62.9,58.3,30.04,ESE,120,1.0,3.0,85,0.00,,,0.00,Wunderground v.1.15,2013-05-02 08:59:00,
2013-05-02 04:05:00,62.7,58.5,30.04,ESE,117,1.0,2.0,86,0.00,,,0.00,Wunderground v.1.15,2013-05-02 09:05:00,
2013-05-02 04:11:00,62.5,58.3,30.04,ESE,117,1.0,1.0,86,0.00,,,0.00,Wunderground v.1.15,2013-05-02 09:11:00,
2013-05-02 04:16:00,62.4,58.2,30.04,SE,141,1.0,3.0,86,0.00,,,0.00,Wunderground v.1.15,2013-05-02 09:16:00,
2013-05-02 04:22:00,62.2,58.3,30.04,ESE,119,1.0,1.0,87,0.00,,,0.00,Wunderground v.1.15,2013-05-02 09:22:00,
2013-05-02 04:28:00,62.1,58.2,30.05,ESE,119,2.0,4.0,87,0.00,,,0.00,Wunderground v.1.15,2013-05-02 09:28:00,
2013-05-02 04:34:00,62.1,58.2,30.05,ESE,119,2.0,2.0,87,0.00,,,0.00,Wunderground v.1.15,2013-05-02 09:34:00,
2013-05-02 04:40:00,62.3,58.4,30.05,East,94,3.0,4.0,87,0.00,,,0.00,Wunderground v.1.15,2013-05-02 09:40:00,
2013-05-02 04:46:00,62.7,58.8,30.05,East,94,3.0,5.0,87,0.00,,,0.00,Wunderground v.1.15,2013-05-02 09:46:00,
2013-05-02 04:52:00,62.7,58.5,30.05,East,93,4.0,5.0,86,0.00,,,0.00,Wunderground v.1.15,2013-05-02 09:52:00,
2013-05-02 04:58:00,62.7,58.5,30.05,SE,141,3.0,5.0,86,0.00,,,0.00,Wunderground v.1.15,2013-05-02 09:58:00,
2013-05-02 05:04:00,62.6,58.4,30.05,East,96,2.0,3.0,86,0.00,,,0.00,Wunderground v.1.15,2013-05-02 10:04:00,
2013-05-02 05:11:00,62.7,58.5,30.05,East,94,4.0,5.0,86,0.00,,,0.00,Wunderground v.1.15,2013-05-02 10:11:00,
2013-05-02 05:17:00,63.0,58.4,30.05,East,94,4.0,6.0,85,0.00,,,0.00,Wunderground v.1.15,2013-05-02 10:17:00,
2013-05-02 05:23:00,63.1,58.5,30.05,East,95,3.0,4.0,85,0.00,,,0.00,Wunderground v.1.15,2013-05-02 10:23:00,
2013-05-02 05:29:00,63.1,58.2,30.05,East,96,3.0,5.0,84,0.00,,,0.00,Wunderground v.1.15,2013-05-02 10:29:00,
2013-05-02 05:35:00,63.1,58.2,30.05,East,95,2.0,3.0,84,0.00,,,0.00,Wunderground v.1.15,2013-05-02 10:35:00,
2013-05-02 05:41:00,63.0,58.1,30.05,East,96,2.0,2.0,84,0.00,,,0.00,Wunderground v.1.15,2013-05-02 10:41:00,
2013-05-02 05:47:00,62.9,58.3,30.05,East,96,2.0,3.0,85,0.00,,,0.00,Wunderground v.1.15,2013-05-02 10:47:00,
2013-05-02 05:53:00,62.9,58.0,30.06,East,96,3.0,3.0,84,0.00,,,0.00,Wunderground v.1.15,2013-05-02 10:53:00,
2013-05-02 05:59:00,63.0,58.1,30.06,East,95,2.0,5.0,84,0.00,,,0.00,Wunderground v.1.15,2013-05-02 10:59:00,
2013-05-02 06:05:00,62.9,58.0,30.06,SE,141,3.0,4.0,84,0.00,,,0.00,Wunderground v.1.15,2013-05-02 11:05:00,
2013-05-02 06:11:00,63.0,58.1,30.06,ESE,106,3.0,3.0,84,0.00,,,0.00,Wunderground v.1.15,2013-05-02 11:11:00,
2013-05-02 06:16:00,63.1,58.2,30.06,ESE,106,2.0,3.0,84,0.00,,,0.00,Wunderground v.1.15,2013-05-02 11:16:00,
2013-05-02 06:22:00,63.3,58.4,30.07,ESE,107,2.0,4.0,84,0.00,,,0.00,Wunderground v.1.15,2013-05-02 11:22:00,
2013-05-02 06:28:00,63.6,58.7,30.07,ESE,108,3.0,4.0,84,0.00,,,0.00,Wunderground v.1.15,2013-05-02 11:28:00,
2013-05-02 06:33:00,63.9,58.6,30.07,ESE,110,3.0,5.0,83,0.00,,,0.00,Wunderground v.1.15,2013-05-02 11:33:00,
2013-05-02 06:39:00,64.1,58.8,30.07,ESE,105,3.0,5.0,83,0.00,,,0.00,Wunderground v.1.15,2013-05-02 11:39:00,
2013-05-02 06:45:00,64.4,58.8,30.07,ESE,109,3.0,5.0,82,0.00,,,0.00,Wunderground v.1.15,2013-05-02 11:45:00,
2013-05-02 06:51:00,64.8,58.8,30.07,ESE,113,3.0,3.0,81,0.00,,,0.00,Wunderground v.1.15,2013-05-02 11:51:00,
2013-05-02 06:57:00,65.4,59.1,30.07,SE,125,3.0,3.0,80,0.00,,,0.00,Wunderground v.1.15,2013-05-02 11:57:00,
2013-05-02 07:03:00,65.5,59.2,30.09,SW,235,5.0,9.0,80,0.00,,,0.00,Wunderground v.1.15,2013-05-02 12:03:00,
2013-05-02 07:09:00,65.5,59.2,30.09,West,268,6.0,9.0,80,0.00,,,0.00,Wunderground v.1.15,2013-05-02 12:09:00,
2013-05-02 07:15:00,65.3,59.3,30.09,West,264,3.0,6.0,81,0.00,,,0.00,Wunderground v.1.15,2013-05-02 12:15:00,
2013-05-02 07:21:00,65.4,59.4,30.09,West,264,3.0,4.0,81,0.00,,,0.00,Wunderground v.1.15,2013-05-02 12:21:00,
2013-05-02 07:27:00,65.4,59.4,30.09,West,267,3.0,5.0,81,0.00,,,0.00,Wunderground v.1.15,2013-05-02 12:27:00,
2013-05-02 07:33:00,65.6,59.6,30.09,West,269,3.0,4.0,81,0.00,,,0.00,Wunderground v.1.15,2013-05-02 12:33:00,
2013-05-02 07:39:00,65.9,59.9,30.09,West,270,2.0,4.0,81,0.00,,,0.00,Wunderground v.1.15,2013-05-02 12:39:00,
2013-05-02 07:45:00,65.7,59.7,30.10,WNW,298,3.0,7.0,81,0.00,,,0.00,Wunderground v.1.15,2013-05-02 12:45:00,
2013-05-02 07:51:00,64.6,58.6,30.10,NW,308,4.0,6.0,81,0.00,,,0.00,Wunderground v.1.15,2013-05-02 12:51:00,
2013-05-02 07:57:00,63.1,57.5,30.10,NW,321,5.0,6.0,82,0.00,,,0.00,Wunderground v.1.15,2013-05-02 12:57:00,
2013-05-02 08:03:00,62.1,57.2,30.11,NW,315,3.0,4.0,84,0.00,,,0.00,Wunderground v.1.15,2013-05-02 13:03:00,
2013-05-02 08:09:00,61.5,56.6,30.12,NW,309,2.0,4.0,84,0.00,,,0.00,Wunderground v.1.15,2013-05-02 13:09:00,
2013-05-02 08:15:00,61.1,56.6,30.11,NW,323,2.0,3.0,85,0.00,,,0.00,Wunderground v.1.15,2013-05-02 13:15:00,
2013-05-02 08:21:00,61.1,55.9,30.11,WNW,290,4.0,6.0,83,0.00,,,0.00,Wunderground v.1.15,2013-05-02 13:21:00,
2013-05-02 08:27:00,61.1,55.9,30.10,NNW,333,5.0,10.0,83,0.00,,,0.00,Wunderground v.1.15,2013-05-02 13:27:00,
2013-05-02 08:33:00,61.3,55.8,30.10,WNW,286,6.0,9.0,82,0.00,,,0.00,Wunderground v.1.15,2013-05-02 13:33:00,
2013-05-02 08:39:00,61.6,55.4,30.10,WNW,282,6.0,9.0,80,0.00,,,0.00,Wunderground v.1.15,2013-05-02 13:39:00,
2013-05-02 08:45:00,61.9,55.7,30.10,NW,305,6.0,9.0,80,0.00,,,0.00,Wunderground v.1.15,2013-05-02 13:45:00,
2013-05-02 08:51:00,62.4,55.4,30.11,WNW,300,4.0,5.0,78,0.00,,,0.00,Wunderground v.1.15,2013-05-02 13:51:00,
2013-05-02 08:57:00,62.7,55.7,30.11,WNW,297,5.0,8.0,78,0.00,,,0.00,Wunderground v.1.15,2013-05-02 13:57:00,
2013-05-02 09:03:00,62.9,55.9,30.12,WNW,288,6.0,9.0,78,0.00,,,0.00,Wunderground v.1.15,2013-05-02 14:03:00,
2013-05-02 09:08:00,63.3,56.0,30.12,WSW,250,6.0,9.0,77,0.00,,,0.00,Wunderground v.1.15,2013-05-02 14:08:00,
2013-05-02 09:14:00,63.6,55.9,30.11,NW,310,7.0,9.0,76,0.00,,,0.00,Wunderground v.1.15,2013-05-02 14:14:00,
2013-05-02 09:20:00,63.8,55.7,30.11,WNW,291,6.0,6.0,75,0.00,,,0.00,Wunderground v.1.15,2013-05-02 14:20:00,
2013-05-02 09:26:00,63.7,55.3,30.11,WNW,295,6.0,8.0,74,0.00,,,0.00,Wunderground v.1.15,2013-05-02 14:26:00,
2013-05-02 09:32:00,63.5,55.1,30.11,WNW,285,7.0,8.0,74,0.00,,,0.00,Wunderground v.1.15,2013-05-02 14:32:00,
2013-05-02 09:38:00,63.7,55.6,30.11,WNW,283,6.0,11.0,75,0.00,,,0.00,Wunderground v.1.15,2013-05-02 14:38:00,
2013-05-02 09:43:00,64.3,55.8,30.11,WNW,294,5.0,6.0,74,0.00,,,0.00,Wunderground v.1.15,2013-05-02 14:43:00,
2013-05-02 09:49:00,65.0,56.1,30.10,NW,304,4.0,8.0,73,0.00,,,0.00,Wunderground v.1.15,2013-05-02 14:49:00,
2013-05-02 09:55:00,65.8,56.1,30.10,NW,315,5.0,9.0,71,0.00,,,0.00,Wunderground v.1.15,2013-05-02 14:55:00,
2013-05-02 10:00:00,65.8,55.7,30.11,WNW,287,6.0,6.0,70,0.00,,,0.00,Wunderground v.1.15,2013-05-02 15:00:00,
2013-05-02 10:06:00,65.9,56.2,30.11,NW,321,6.0,10.0,71,0.00,,,0.00,Wunderground v.1.15,2013-05-02 15:06:00,
2013-05-02 10:12:00,66.0,56.3,30.11,NNW,341,6.0,6.0,71,0.00,,,0.00,Wunderground v.1.15,2013-05-02 15:12:00,
2013-05-02 10:18:00,66.3,55.8,30.12,West,275,5.0,10.0,69,0.00,,,0.00,Wunderground v.1.15,2013-05-02 15:18:00,
2013-05-02 10:24:00,66.1,55.6,30.12,NW,305,6.0,6.0,69,0.00,,,0.00,Wunderground v.1.15,2013-05-02 15:24:00,
2013-05-02 10:30:00,65.7,55.6,30.13,SW,235,5.0,9.0,70,0.00,,,0.00,Wunderground v.1.15,2013-05-02 15:30:00,
2013-05-02 10:36:00,65.4,55.4,30.13,NW,326,6.0,13.0,70,0.00,,,0.00,Wunderground v.1.15,2013-05-02 15:36:00,
2013-05-02 10:42:00,65.6,55.5,30.14,SW,227,6.0,8.0,70,0.00,,,0.00,Wunderground v.1.15,2013-05-02 15:42:00,
2013-05-02 10:48:00,65.1,55.1,30.14,West,275,7.0,11.0,70,0.00,,,0.00,Wunderground v.1.15,2013-05-02 15:48:00,
2013-05-02 10:54:00,64.8,54.8,30.14,West,274,6.0,9.0,70,0.00,,,0.00,Wunderground v.1.15,2013-05-02 15:54:00,
2013-05-02 11:00:00,64.8,55.2,30.13,West,279,6.0,7.0,71,0.00,,,0.00,Wunderground v.1.15,2013-05-02 16:00:00,
2013-05-02 11:06:00,65.3,55.7,30.13,NNW,347,5.0,7.0,71,0.00,,,0.00,Wunderground v.1.15,2013-05-02 16:06:00,
2013-05-02 11:12:00,65.8,55.3,30.13,NW,309,4.0,5.0,69,0.00,,,0.00,Wunderground v.1.15,2013-05-02 16:12:00,
2013-05-02 11:18:00,65.9,55.4,30.12,WNW,295,5.0,8.0,69,0.00,,,0.00,Wunderground v.1.15,2013-05-02 16:18:00,
2013-05-02 11:24:00,66.4,55.9,30.11,NW,321,5.0,8.0,69,0.00,,,0.00,Wunderground v.1.15,2013-05-02 16:24:00,
2013-05-02 11:30:00,66.8,55.9,30.11,WNW,302,5.0,6.0,68,0.00,,,0.00,Wunderground v.1.15,2013-05-02 16:30:00,
2013-05-02 11:36:00,67.4,56.1,30.11,WNW,294,5.0,6.0,67,0.00,,,0.00,Wunderground v.1.15,2013-05-02 16:36:00,
2013-05-02 11:42:00,67.7,55.9,30.11,WNW,294,6.0,7.0,66,0.00,,,0.00,Wunderground v.1.15,2013-05-02 16:42:00,
2013-05-02 11:48:00,68.0,56.2,30.10,WNW,285,6.0,10.0,66,0.00,,,0.00,Wunderground v.1.15,2013-05-02 16:48:00,
2013-05-02 11:54:00,68.1,56.3,30.10,WNW,299,7.0,11.0,66,0.00,,,0.00,Wunderground v.1.15,2013-05-02 16:54:00,
2013-05-02 12:00:00,68.3,56.9,30.10,WNW,296,7.0,7.0,67,0.00,,,0.00,Wunderground v.1.15,2013-05-02 17:00:00,
2013-05-02 12:06:00,68.5,57.1,30.10,West,277,7.0,8.0,67,0.00,,,0.00,Wunderground v.1.15,2013-05-02 17:06:00,
2013-05-02 12:12:00,69.1,56.8,30.10,NW,306,6.0,7.0,65,0.00,,,0.00,Wunderground v.1.15,2013-05-02 17:12:00,
2013-05-02 12:18:00,69.6,56.9,30.09,NW,314,6.0,8.0,64,0.00,,,0.00,Wunderground v.1.15,2013-05-02 17:18:00,
2013-05-02 12:24:00,69.8,57.5,30.09,North,4,6.0,10.0,65,0.00,,,0.00,Wunderground v.1.15,2013-05-02 17:24:00,
2013-05-02 12:30:00,70.1,56.9,30.09,NW,304,6.0,11.0,63,0.00,,,0.00,Wunderground v.1.15,2013-05-02 17:30:00,
2013-05-02 12:36:00,70.3,57.1,30.08,NNW,330,6.0,13.0,63,0.00,,,0.00,Wunderground v.1.15,2013-05-02 17:36:00,
2013-05-02 12:42:00,70.4,57.2,30.08,West,269,6.0,11.0,63,0.00,,,0.00,Wunderground v.1.15,2013-05-02 17:42:00,
2013-05-02 12:48:00,70.8,57.1,30.08,WNW,289,7.0,12.0,62,0.00,,,0.00,Wunderground v.1.15,2013-05-02 17:48:00,
2013-05-02 12:54:00,71.2,57.5,30.08,NW,306,6.0,7.0,62,0.00,,,0.00,Wunderground v.1.15,2013-05-02 17:54:00,
2013-05-02 13:00:00,71.5,56.9,30.08,NNW,340,6.0,6.0,60,0.00,,,0.00,Wunderground v.1.15,2013-05-02 18:00:00,
2013-05-02 13:06:00,71.5,57.8,30.08,WNW,287,6.0,8.0,62,0.00,,,0.00,Wunderground v.1.15,2013-05-02 18:06:00,
2013-05-02 13:12:00,71.9,58.2,30.07,WNW,288,6.0,6.0,62,0.00,,,0.00,Wunderground v.1.15,2013-05-02 18:12:00,
2013-05-02 13:18:00,71.9,57.3,30.07,WNW,303,6.0,6.0,60,0.00,,,0.00,Wunderground v.1.15,2013-05-02 18:18:00,
2013-05-02 13:24:00,72.1,58.4,30.07,West,273,6.0,7.0,62,0.00,,,0.00,Wunderground v.1.15,2013-05-02 18:24:00,
2013-05-02 13:30:00,72.5,57.8,30.07,WNW,300,6.0,6.0,60,0.00,,,0.00,Wunderground v.1.15,2013-05-02 18:30:00,
2013-05-02 13:36:00,72.6,57.9,30.07,WNW,295,7.0,9.0,60,0.00,,,0.00,Wunderground v.1.15,2013-05-02 18:36:00,
2013-05-02 13:42:00,72.5,58.3,30.07,WSW,254,7.0,7.0,61,0.00,,,0.00,Wunderground v.1.15,2013-05-02 18:42:00,
2013-05-02 13:48:00,73.0,59.2,30.07,West,281,6.0,7.0,62,0.00,,,0.00,Wunderground v.1.15,2013-05-02 18:48:00,
2013-05-02 13:54:00,73.8,58.6,30.06,NW,307,6.0,11.0,59,0.00,,,0.00,Wunderground v.1.15,2013-05-02 18:54:00,
2013-05-02 14:00:00,73.8,58.1,30.07,WNW,296,7.0,9.0,58,0.00,,,0.00,Wunderground v.1.15,2013-05-02 19:00:00,
2013-05-02 14:06:00,73.9,58.7,30.06,West,269,6.0,9.0,59,0.00,,,0.00,Wunderground v.1.15,2013-05-02 19:06:00,
2013-05-02 14:11:00,73.8,57.6,30.06,NW,322,6.0,8.0,57,0.00,,,0.00,Wunderground v.1.15,2013-05-02 19:11:00,
2013-05-02 14:17:00,73.5,58.3,30.06,WSW,243,7.0,14.0,59,0.00,,,0.00,Wunderground v.1.15,2013-05-02 19:17:00,
2013-05-02 14:23:00,73.9,58.7,30.06,WNW,291,8.0,13.0,59,0.00,,,0.00,Wunderground v.1.15,2013-05-02 19:23:00,
2013-05-02 14:29:00,73.3,58.1,30.06,West,269,7.0,16.0,59,0.00,,,0.00,Wunderground v.1.15,2013-05-02 19:29:00,
2013-05-02 14:35:00,72.4,56.8,30.06,West,269,10.0,15.0,58,0.00,,,0.00,Wunderground v.1.15,2013-05-02 19:35:00,
2013-05-02 14:41:00,71.9,57.7,30.06,WNW,284,10.0,12.0,61,0.00,,,0.00,Wunderground v.1.15,2013-05-02 19:41:00,
2013-05-02 14:47:00,71.1,57.0,30.06,WNW,302,10.0,15.0,61,0.00,,,0.00,Wunderground v.1.15,2013-05-02 19:47:00,
2013-05-02 14:53:00,71.3,56.7,30.06,NW,310,10.0,11.0,60,0.00,,,0.00,Wunderground v.1.15,2013-05-02 19:53:00,
2013-05-02 14:59:00,71.6,56.5,30.06,WNW,291,8.0,11.0,59,0.00,,,0.00,Wunderground v.1.15,2013-05-02 19:59:00,
2013-05-02 15:05:00,71.8,57.6,30.06,NW,306,8.0,12.0,61,0.00,,,0.00,Wunderground v.1.15,2013-05-02 20:05:00,
2013-05-02 15:11:00,72.0,56.9,30.06,West,267,8.0,15.0,59,0.00,,,0.00,Wunderground v.1.15,2013-05-02 20:11:00,
2013-05-02 15:17:00,71.7,57.5,30.05,West,279,9.0,15.0,61,0.00,,,0.00,Wunderground v.1.15,2013-05-02 20:17:00,
2013-05-02 15:23:00,71.7,56.6,30.06,WNW,282,9.0,11.0,59,0.00,,,0.00,Wunderground v.1.15,2013-05-02 20:23:00,
2013-05-02 15:29:00,71.5,56.9,30.05,WNW,296,9.0,11.0,60,0.00,,,0.00,Wunderground v.1.15,2013-05-02 20:29:00,
2013-05-02 15:34:00,71.6,57.9,30.05,WNW,290,9.0,14.0,62,0.00,,,0.00,Wunderground v.1.15,2013-05-02 20:34:00,
2013-05-02 15:40:00,71.8,57.6,30.05,WSW,255,9.0,9.0,61,0.00,,,0.00,Wunderground v.1.15,2013-05-02 20:40:00,
2013-05-02 15:46:00,71.5,56.9,30.05,NW,308,7.0,11.0,60,0.00,,,0.00,Wunderground v.1.15,2013-05-02 20:46:00,
2013-05-02 15:52:00,70.9,56.8,30.05,WNW,294,7.0,10.0,61,0.00,,,0.00,Wunderground v.1.15,2013-05-02 20:52:00,
2013-05-02 15:58:00,70.1,56.0,30.05,NW,313,8.0,10.0,61,0.00,,,0.00,Wunderground v.1.15,2013-05-02 20:58:00,
2013-05-02 16:04:00,69.4,55.8,30.05,NNW,333,9.0,15.0,62,0.00,,,0.00,Wunderground v.1.15,2013-05-02 21:04:00,
2013-05-02 16:10:00,69.1,56.0,30.05,NW,306,9.0,9.0,63,0.00,,,0.00,Wunderground v.1.15,2013-05-02 21:10:00,
2013-05-02 16:16:00,69.2,55.6,30.05,WNW,294,7.0,9.0,62,0.00,,,0.00,Wunderground v.1.15,2013-05-02 21:16:00,
2013-05-02 16:22:00,68.5,54.1,30.05,WSW,252,8.0,10.0,60,0.00,,,0.00,Wunderground v.1.15,2013-05-02 21:22:00,
2013-05-02 16:28:00,67.3,53.8,30.05,NW,314,10.0,17.0,62,0.00,,,0.00,Wunderground v.1.15,2013-05-02 21:28:00,
2013-05-02 16:34:00,66.7,53.3,30.05,West,279,9.0,15.0,62,0.00,,,0.00,Wunderground v.1.15,2013-05-02 21:34:00,
2013-05-02 16:40:00,66.1,52.7,30.05,West,277,8.0,8.0,62,0.00,,,0.00,Wunderground v.1.15,2013-05-02 21:40:00,
2013-05-02 16:46:00,65.5,52.6,30.05,WNW,283,8.0,10.0,63,0.00,,,0.00,Wunderground v.1.15,2013-05-02 21:46:00,
2013-05-02 16:52:00,65.1,52.6,30.05,NW,310,9.0,10.0,64,0.00,,,0.00,Wunderground v.1.15,2013-05-02 21:52:00,
2013-05-02 16:58:00,64.7,52.2,30.05,West,267,9.0,11.0,64,0.00,,,0.00,Wunderground v.1.15,2013-05-02 21:58:00,
2013-05-02 17:04:00,64.3,51.9,30.05,West,279,8.0,13.0,64,0.00,,,0.00,Wunderground v.1.15,2013-05-02 22:04:00,
2013-05-02 17:10:00,64.0,51.6,30.05,NW,315,9.0,9.0,64,0.00,,,0.00,Wunderground v.1.15,2013-05-02 22:10:00,
2013-05-02 17:16:00,64.0,51.1,30.05,WNW,290,9.0,14.0,63,0.00,,,0.00,Wunderground v.1.15,2013-05-02 22:16:00,
2013-05-02 17:22:00,63.8,51.8,30.05,WNW,298,9.0,9.0,65,0.00,,,0.00,Wunderground v.1.15,2013-05-02 22:22:00,
2013-05-02 17:28:00,63.7,51.7,30.05,NW,310,9.0,11.0,65,0.00,,,0.00,Wunderground v.1.15,2013-05-02 22:28:00,
2013-05-02 17:34:00,63.4,51.4,30.05,NW,318,8.0,9.0,65,0.00,,,0.00,Wunderground v.1.15,2013-05-02 22:34:00,
2013-05-02 17:40:00,62.7,50.8,30.05,WSW,252,7.0,12.0,65,0.00,,,0.00,Wunderground v.1.15,2013-05-02 22:40:00,
2013-05-02 17:46:00,61.8,49.9,30.06,NW,304,8.0,12.0,65,0.00,,,0.00,Wunderground v.1.15,2013-05-02 22:46:00,
2013-05-02 17:52:00,61.1,50.1,30.06,WNW,293,9.0,10.0,67,0.00,,,0.00,Wunderground v.1.15,2013-05-02 22:52:00,
2013-05-02 17:58:00,60.7,49.7,30.06,NW,325,8.0,12.0,67,0.00,,,0.00,Wunderground v.1.15,2013-05-02 22:58:00,
2013-05-02 18:04:00,60.3,49.3,30.06,NNW,342,7.0,15.0,67,0.00,,,0.00,Wunderground v.1.15,2013-05-02 23:04:00,
2013-05-02 18:10:00,59.9,48.9,30.06,WNW,289,7.0,10.0,67,0.00,,,0.00,Wunderground v.1.15,2013-05-02 23:10:00,
2013-05-02 18:16:00,59.5,49.3,30.06,NW,321,8.0,10.0,69,0.00,,,0.00,Wunderground v.1.15,2013-05-02 23:16:00,
2013-05-02 18:22:00,59.2,48.6,30.06,NW,314,8.0,12.0,68,0.00,,,0.00,Wunderground v.1.15,2013-05-02 23:22:00,
2013-05-02 18:28:00,59.0,48.4,30.07,West,279,9.0,12.0,68,0.00,,,0.00,Wunderground v.1.15,2013-05-02 23:28:00,
2013-05-02 18:34:00,58.7,48.2,30.07,West,281,8.0,12.0,68,0.00,,,0.00,Wunderground v.1.15,2013-05-02 23:34:00,
2013-05-02 18:39:00,58.6,48.5,30.07,NW,312,7.0,12.0,69,0.00,,,0.00,Wunderground v.1.15,2013-05-02 23:39:00,
2013-05-02 18:45:00,58.4,48.7,30.08,NW,306,6.0,11.0,70,0.00,,,0.00,Wunderground v.1.15,2013-05-02 23:45:00,
2013-05-02 18:51:00,58.1,48.7,30.08,WNW,286,7.0,8.0,71,0.00,,,0.00,Wunderground v.1.15,2013-05-02 23:51:00,
2013-05-02 18:57:00,57.7,48.0,30.09,NW,304,8.0,10.0,70,0.00,,,0.00,Wunderground v.1.15,2013-05-02 23:57:00,
2013-05-02 19:03:00,57.5,48.9,30.08,NNW,339,7.0,8.0,73,0.00,,,0.00,Wunderground v.1.15,2013-05-03 00:03:00,
2013-05-02 19:09:00,57.2,48.3,30.09,NW,304,6.0,10.0,72,0.00,,,0.00,Wunderground v.1.15,2013-05-03 00:09:00,
2013-05-02 19:15:00,56.8,48.2,30.09,West,263,7.0,11.0,73,0.00,,,0.00,Wunderground v.1.15,2013-05-03 00:15:00,
2013-05-02 19:21:00,56.6,48.4,30.09,West,264,6.0,9.0,74,0.00,,,0.00,Wunderground v.1.15,2013-05-03 00:21:00,
2013-05-02 19:27:00,56.3,48.1,30.10,West,269,7.0,9.0,74,0.00,,,0.00,Wunderground v.1.15,2013-05-03 00:27:00,
2013-05-02 19:33:00,55.8,48.0,30.11,WNW,287,7.0,11.0,75,0.00,,,0.00,Wunderground v.1.15,2013-05-03 00:33:00,
2013-05-02 19:39:00,55.5,48.1,30.11,WNW,291,7.0,11.0,76,0.00,,,0.00,Wunderground v.1.15,2013-05-03 00:39:00,
2013-05-02 19:45:00,55.3,48.2,30.10,WNW,303,7.0,13.0,77,0.00,,,0.00,Wunderground v.1.15,2013-05-03 00:45:00,
2013-05-02 19:51:00,55.0,47.9,30.11,West,275,6.0,8.0,77,0.00,,,0.00,Wunderground v.1.15,2013-05-03 00:51:00,
2013-05-02 19:57:00,54.5,47.8,30.09,NW,320,6.0,10.0,78,0.00,,,0.01,Wunderground v.1.15,2013-05-03 00:57:00,
2013-05-02 20:03:00,53.9,47.9,30.09,NW,315,7.0,7.0,80,0.00,,,0.01,Wunderground v.1.15,2013-05-03 01:03:00,
2013-05-02 20:09:00,53.2,47.8,30.09,NW,324,6.0,10.0,82,0.05,,,0.02,Wunderground v.1.15,2013-05-03 01:09:00,
2013-05-02 20:15:00,52.5,47.2,30.09,WNW,297,7.0,11.0,82,0.10,,,0.03,Wunderground v.1.15,2013-05-03 01:15:00,
2013-05-02 20:21:00,51.9,47.5,30.09,WNW,289,6.0,7.0,85,0.09,,,0.04,Wunderground v.1.15,2013-05-03 01:21:00,
2013-05-02 20:27:00,51.4,47.0,30.09,NW,306,6.0,9.0,85,0.08,,,0.05,Wunderground v.1.15,2013-05-03 01:27:00,
2013-05-02 20:33:00,51.1,46.7,30.09,NNW,333,7.0,7.0,85,0.06,,,0.05,Wunderground v.1.15,2013-05-03 01:33:00,
2013-05-02 20:39:00,50.8,46.5,30.09,WNW,293,7.0,9.0,85,0.04,,,0.06,Wunderground v.1.15,2013-05-03 01:39:00,
2013-05-02 20:45:00,50.5,46.5,30.09,WNW,288,6.0,7.0,86,0.04,,,0.06,Wunderground v.1.15,2013-05-03 01:45:00,
2013-05-02 20:51:00,50.3,46.6,30.10,NW,320,6.0,6.0,87,0.05,,,0.07,Wunderground v.1.15,2013-05-03 01:51:00,
2013-05-02 20:57:00,50.2,46.8,30.10,NW,304,6.0,8.0,88,0.05,,,0.07,Wunderground v.1.15,2013-05-03 01:57:00,
2013-05-02 21:03:00,49.9,46.2,30.10,NW,314,7.0,11.0,87,0.05,,,0.07,Wunderground v.1.15,2013-05-03 02:03:00,
2013-05-02 21:08:00,49.8,46.4,30.10,NW,307,7.0,11.0,88,0.04,,,0.08,Wunderground v.1.15,2013-05-03 02:08:00,
2013-05-02 21:14:00,49.6,45.9,30.10,West,280,6.0,11.0,87,0.04,,,0.08,Wunderground v.1.15,2013-05-03 02:14:00,
2013-05-02 21:20:00,49.2,45.5,30.10,NW,308,7.0,7.0,87,0.04,,,0.08,Wunderground v.1.15,2013-05-03 02:20:00,
2013-05-02 21:26:00,48.9,45.2,30.10,WNW,299,8.0,13.0,87,0.04,,,0.09,Wunderground v.1.15,2013-05-03 02:26:00,
2013-05-02 21:32:00,48.7,45.3,30.10,WNW,298,8.0,10.0,88,0.04,,,0.09,Wunderground v.1.15,2013-05-03 02:32:00,
2013-05-02 21:38:00,48.6,45.5,30.10,SE,141,7.0,12.0,89,0.04,,,0.09,Wunderground v.1.15,2013-05-03 02:38:00,
2013-05-02 21:44:00,48.4,45.0,30.10,WNW,299,7.0,10.0,88,0.00,,,0.09,Wunderground v.1.15,2013-05-03 02:44:00,
2013-05-02 21:50:00,48.4,45.0,30.10,NNW,332,7.0,8.0,88,0.00,,,0.09,Wunderground v.1.15,2013-05-03 02:50:00,
2013-05-02 21:56:00,48.3,45.2,30.10,NNW,332,7.0,11.0,89,0.00,,,0.09,Wunderground v.1.15,2013-05-03 02:56:00,
2013-05-02 22:02:00,48.2,45.1,30.10,NW,316,6.0,9.0,89,0.00,,,0.09,Wunderground v.1.15,2013-05-03 03:02:00,
2013-05-02 22:08:00,48.2,45.4,30.10,NW,310,6.0,12.0,90,0.00,,,0.09,Wunderground v.1.15,2013-05-03 03:08:00,
2013-05-02 22:14:00,48.2,45.1,30.10,NW,324,7.0,11.0,89,0.00,,,0.09,Wunderground v.1.15,2013-05-03 03:14:00,
2013-05-02 22:20:00,48.1,45.0,30.10,NW,313,7.0,7.0,89,0.00,,,0.09,Wunderground v.1.15,2013-05-03 03:20:00,
2013-05-02 22:26:00,48.0,44.9,30.10,NW,304,6.0,13.0,89,0.00,,,0.09,Wunderground v.1.15,2013-05-03 03:26:00,
2013-05-02 22:32:00,47.9,45.1,30.10,NW,319,6.0,8.0,90,0.00,,,0.09,Wunderground v.1.15,2013-05-03 03:32:00,
2013-05-02 22:38:00,47.9,45.1,30.10,NW,314,5.0,8.0,90,0.00,,,0.09,Wunderground v.1.15,2013-05-03 03:38:00,
2013-05-02 22:44:00,47.9,45.1,30.09,WNW,283,5.0,14.0,90,0.00,,,0.09,Wunderground v.1.15,2013-05-03 03:44:00,
2013-05-02 22:49:00,47.8,45.0,30.09,WNW,302,5.0,14.0,90,0.00,,,0.10,Wunderground v.1.15,2013-05-03 03:49:00,
2013-05-02 22:55:00,47.8,45.3,30.09,SE,141,5.0,6.0,91,0.00,,,0.10,Wunderground v.1.15,2013-05-03 03:55:00,
2013-05-02 23:00:00,47.7,44.9,30.08,WNW,295,6.0,6.0,90,0.00,,,0.10,Wunderground v.1.15,2013-05-03 04:00:00,
2013-05-02 23:01:00,47.6,44.8,30.08,NNW,330,6.0,7.0,90,0.00,,,0.10,Wunderground v.1.15,2013-05-03 04:01:00,
2013-05-02 23:02:00,47.6,44.8,30.08,NW,316,6.0,7.0,90,0.00,,,0.10,Wunderground v.1.15,2013-05-03 04:02:00,
2013-05-02 23:04:00,47.6,45.1,30.08,NW,310,6.0,7.0,91,0.00,,,0.10,Wunderground v.1.15,2013-05-03 04:04:00,
2013-05-02 23:05:00,47.6,45.1,30.08,WNW,303,5.0,12.0,91,0.00,,,0.10,Wunderground v.1.15,2013-05-03 04:05:00,
2013-05-02 23:11:00,47.5,45.0,30.08,NW,308,5.0,5.0,91,0.00,,,0.10,Wunderground v.1.15,2013-05-03 04:11:00,
2013-05-02 23:12:00,47.5,45.0,30.08,NNW,335,5.0,5.0,91,0.00,,,0.10,Wunderground v.1.15,2013-05-03 04:12:00,
2013-05-02 23:18:00,47.5,45.0,30.08,NW,314,4.0,6.0,91,0.00,,,0.10,Wunderground v.1.15,2013-05-03 04:18:00,
2013-05-02 23:24:00,47.5,45.0,30.08,NW,312,3.0,6.0,91,0.00,,,0.10,Wunderground v.1.15,2013-05-03 04:24:00,
2013-05-02 23:29:00,47.4,44.9,30.07,NW,320,5.0,6.0,91,0.00,,,0.10,Wunderground v.1.15,2013-05-03 04:29:00,
2013-05-02 23:35:00,47.3,45.1,30.07,NW,310,6.0,6.0,92,0.00,,,0.11,Wunderground v.1.15,2013-05-03 04:35:00,
2013-05-02 23:41:00,47.3,45.1,30.07,WNW,288,5.0,5.0,92,0.00,,,0.11,Wunderground v.1.15,2013-05-03 04:41:00,
2013-05-02 23:46:00,47.3,45.1,30.07,WNW,287,4.0,5.0,92,0.00,,,0.11,Wunderground v.1.15,2013-05-03 04:46:00,
2013-05-02 23:52:00,47.3,45.1,30.07,NW,309,4.0,7.0,92,0.00,,,0.11,Wunderground v.1.15,2013-05-03 04:52:00,
2013-05-02 23:58:00,47.3,45.1,30.08,WNW,294,5.0,7.0,92,0.00,,,0.00,Wunderground v.1.15,2013-05-03 04:58:00,